Location: doobydoo
(53.3403°N, 2.6908°W)
Time: 11:32:33
(UTC+00:00)

ISS - Pass Details

Date: 02 December 2021
Orbit: 413 x 422 km, 51.6° (Epoch: 28 January)

Event Time Altitude Azimuth Distance (km) Brightness Sun altitude
Rises 18:18:48 0° 278° (W) 2,388 1.4 -20.2°
Reaches altitude 10° 18:20:59 10° 271° (W) 1,519 0.2 -20.6°
Maximum altitude 18:24:12 39° 201° (SSW) 651 -2.6 -21.0°
Enters shadow 18:24:36 37° 181° (S) 674 -2.7 -21.1°
